Regional Weather Roundup
Issued by NWS San Angelo, TX

Home | Current Version | Previous Version | Text Only | Print | Product List | Glossary On
Versions: 1 2 3 4 5 6 7 8 9 10 11 12 13 14 15 16 17 18 19 20 21 22 23 24 25 26 27 28 29 30 31 32 33 34 35 36 37 38 39 40 41 42 43 44 45 46 47 48 49 50
000
ASUS44 KSJT 301910
RWRSJT
WEST CENTRAL TEXAS REGIONAL WEATHER ROUNDUP
NATIONAL WEATHER SERVICE SAN ANGELO TX
200 PM CDT THU JUL 30 2015

NOTE: "FAIR" INDICATES FEW OR NO CLOUDS BELOW 12,000 FEET WITH NO
SIGNIFICANT WEATHER AND/OR OBSTRUCTIONS TO VISIBILITY.

TXZ049-054-064>066-071>073-076>078-098-099-113-114-127-128-139-140-
154-155-168>170-302000
...LOCATIONS ACROSS WEST CENTRAL TEXAS...

CITY           SKY/WX    TMP DP  RH WIND       PRES   REMARKS
SAN ANGELO     SUNNY     98  60  28 VRB5      30.13F
ABILENE        MOSUNNY   97  61  30 VRB3      30.14F
DYESS AFB      MOSUNNY   98  64  32 SE8       30.12F
JUNCTION       SUNNY     97  57  26 N5        30.13F
SWEETWATER     MOSUNNY   93  58  30 E3        30.19F
BROWNWOOD      PTSUNNY   93  64  38 N3        30.13S
COLEMAN        PTCLDY    95  65  36 SE6       30.15S
SONORA         SUNNY     95  55  26 VRB6G14   30.18F
OZONA          FAIR      97  50  20 E17       30.18F
BRADY          MOSUNNY   97  63  32 E5        30.14F
$$

TEXAS PANHANDLE/OKLAHOMA PANHANDLE

CITY           SKY/WX    TMP DP  RH WIND       PRES   REMARKS
AMARILLO       PTSUNNY   80  65  59 NE17      30.29F
BORGER         CLOUDY    79  69  71 NE13      30.28F
CANADIAN       PTSUNNY   82  71  71 E13G18    30.23F
DALHART        PTSUNNY   85  61  44 CALM      30.32F
DUMAS          PTCLDY    81  65  59 NE7       30.31R
GUYMON         NOT AVBL
HEREFORD       MOCLDY    83  66  55 MISG      30.31S
PAMPA          CLOUDY    80  69  67 NE9       30.30F
PERRYTON       NOT AVBL
$$

SOUTHERN PANHANDLE/SOUTH PLAINS/ROLLING PLAINS

CITY           SKY/WX    TMP DP  RH WIND       PRES   REMARKS
LUBBOCK        PTSUNNY   88  65  46 E10G18    30.24F
SNYDER         MOSUNNY   92  62  35 S3        30.19S
CHILDRESS      SUNNY     93  69  45 NE8       30.18S
SEMINOLE       PTCLDY    91  57  31 NE10      30.24F HAZE
$$

PERMIAN BASIN

CITY           SKY/WX    TMP DP  RH WIND       PRES   REMARKS
MIDLAND        PTSUNNY   94  55  26 NE10      30.18F
ODESSA         MOSUNNY   95  52  23 MISG      30.19F
WINK           SUNNY     98  54  22 SE10G21   30.15F
$$

FAR WEST/SOUTHWEST MOUNTAINS/TRANS PECOS

CITY           SKY/WX    TMP DP  RH WIND       PRES   REMARKS
ALPINE         CLEAR     87  55  33 E8G18     30.33F
DRYDEN           N/A     98  59  27 MISG      30.12F
EL PASO        MOSUNNY   81  61  50 W6        30.24F
FORT STOCKTON  MOSUNNY   96  54  24 E17       30.17F
GUADALUPE PASS SUNNY     81  60  48 E21       30.35F
MARFA          SUNNY     88  55  33 NE10G20   30.30F
PECOS          CLEAR     95  55  25 NW6       30.15F
$$

DALLAS/FORT WORTH METROPLEX

CITY           SKY/WX    TMP DP  RH WIND       PRES   REMARKS
DFW AIRPORT    MOSUNNY   99  63  30 CALM      30.07F
FTW MEACHAM    SUNNY    100  63  29 CALM      30.07F
DAL-EXECUTIVE  SUNNY    101  60  25 E12       30.07F
GRAND PRAIRIE  SUNNY     99  64  32 SW5       30.08F
ADDISON        MOSUNNY   99  63  30 SW7       30.08F
MESQUITE       CLEAR     99  61  28 NW3       30.07F
LANCASTER      CLEAR     99  57  24 CALM      30.08F
$$

NORTH CENTRAL TEXAS

CITY           SKY/WX    TMP DP  RH WIND       PRES   REMARKS
SHRMAN/DENISON PTCLDY    98  69  38 E5        30.10F
GAINESVILLE    PTSUNNY   99  66  33 CALM      30.10F
BRIDGEPORT     NOT AVBL
DENTON         MOSUNNY  100  65  31 MISG      30.07F
WAXAHACHIE     CLEAR     99  65  32 SE3       30.09F
GRANBURY       CLEAR    100  59  25 SE7       30.09F
$$

WESTERN NORTH TEXAS

CITY           SKY/WX    TMP DP  RH WIND       PRES   REMARKS
WICHITA FALLS  MOSUNNY   98  65  33 VRB5      30.09F
VERNON         PTCLDY   100  52  20 N15G26    30.12S
BRECKENRIDGE   PTCLDY    97  60  29 CALM      30.11F
COMANCHE       MOSUNNY   93  64  38 E3        30.13S
$$

CENTRAL AND SOUTH CENTRAL TEXAS

CITY           SKY/WX    TMP DP  RH WIND       PRES   REMARKS
AUSTIN/BERGSTM MOSUNNY   96  60  30 NE5       30.07F
WACO           MOSUNNY   99  63  30 CALM      30.07F
HILLSBORO      PTCLDY    99  62  29 NE6       30.08F
TEMPLE         SUNNY    100  63  28 S7        30.07F
KILLEEN-GRAY   MOSUNNY   97  61  31 NE5       30.08F
FORT HOOD      MOSUNNY   98  63  31 SE9       30.07F
GEORGETOWN     MOSUNNY   99  61  28 S9        30.07F
LAGO VISTA     FAIR      98  57  25 S5        30.12F
SAN MARCOS     SUNNY     97  64  34 SE8       30.08F
NEW BRAUNFELS  SUNNY     98  65  33 MISG      30.07F
RANDOLPH AFB   MOSUNNY   94  64  35 CALM      30.09F
SAN ANTONIO    MOSUNNY   95  64  35 CALM      30.09F
STINSON        SUNNY     96  66  37 SE5       30.06F
PLEASANTON     NOT AVBL
LA GRANGE      SUNNY     98  67  37 CALM      30.05F
GIDDINGS       PTCLDY    98  62  30 NE5       30.10F
$$

EAST TEXAS

CITY           SKY/WX    TMP DP  RH WIND       PRES   REMARKS
PARIS          SUNNY     99  66  34 S6        30.07F
CLARKSVILLE    NOT AVBL
TYLER          MOSUNNY  102  65  29 MISG      30.06F
LONGVIEW       MOSUNNY  102  70  35 N6        30.04F
PALESTINE      PTCLDY    99  66  34 N7        30.07F
NACOGDOCHES    MOSUNNY   99  68  36 N6        30.03F
$$

TEXAS HILL COUNTRY AND EDWARDS PLATEAU

CITY           SKY/WX    TMP DP  RH WIND       PRES   REMARKS
LLANO          CLEAR    100  57  23 NE6       30.12F
HORSESHOE BAY  FAIR      98  58  27 S3        30.10F
KERRVILLE      SUNNY     97  56  25 SE3       30.14F
FREDERICKSBRG  SUNNY     95  52  23 SE7       30.14S
ROCKSPRINGS    PTCLDY    95  52  23 S9        30.18F
HONDO          SUNNY     95  59  30 VRB5      30.11F
UVALDE         CLEAR     94  60  31 SE6       30.09F
DEL RIO        SUNNY     98  55  23 SE8       30.06F
$$

SOUTHEAST TEXAS

CITY           SKY/WX    TMP DP  RH WIND       PRES   REMARKS
COLLEGE STN    MOSUNNY  101  66  31 N7        30.05F
CALDWELL       PTCLDY    97  63  32 NE9       30.09F
CROCKETT         N/A    102  73  39 NE7       30.07F
BRENHAM        SUNNY     98  66  34 CALM      30.07S
HUNTSVILLE     MOSUNNY   99  68  36 VRB3      30.05F
CONROE         MOSUNNY   98  65  33 S3        30.04F
HOUSTON BUSH   PTSUNNY   97  70  41 NE7       30.04F
HOUSTON HOBBY  MOSUNNY   95  68  41 CALM      30.03F
PERLAND        MOSUNNY   98  66  34 NE5       30.05F
WHARTON        MOCLDY    95  67  39 CALM      30.05F
$$

THE UPPER TEXAS COAST

CITY           SKY/WX    TMP DP  RH WIND       PRES   REMARKS
ORANGE         PTCLDY    98  64  31 NE5       30.02F
PORT ARTHUR    MOSUNNY  101  75  43 N14       30.00F
GALVESTON      MOSUNNY   93  74  53 S6        30.05F
ANGLETON       MOSUNNY   98  70  40 NE7       30.04F
BAY CITY       CLEAR     97  70  41 CALM      30.04F
$$

TEXAS COASTAL BEND, RIO GRANDE PLAINS DEEP SOUTH TEXAS

CITY           SKY/WX    TMP DP  RH WIND       PRES   REMARKS
VICTORIA       MOSUNNY   96  68  39 W6        30.05F
BEEVILLE       FAIR      94  70  44 E8        30.06F
ROCKPORT       SUNNY     91  74  57 E7        30.05F
PORT ARANSAS   CLEAR     87  77  72 SE8       30.07S
PORT LAVACA    NOT AVBL
CORPUS CHRISTI PTSUNNY   96  70  42 E10       30.05F
KINGSVILLE NAS PTSUNNY   96  74  48 VRB5      30.05F
COTULLA        SUNNY     98  62  30 VRB7G16   30.06F
LAREDO         MOSUNNY   99  63  30 SE10      30.05F
BROWNSVILLE    MOSUNNY   95  74  50 SE13      30.03F
PORT ISABEL    SUNNY     90  76  63 E17       30.05S
HEBBRONVILLE     N/A     95  65  37 SE8G17    30.07F
MCALLEN        MOSUNNY  101  70  36 E13       30.02F
WESLACO        SUNNY     98  66  35 E8        30.02F
FALFURRIAS     PTCLDY    96  67  38 E7        30.04F
EDINBURG       PTCLDY    99  68  36 SE7       30.03F
$$



USA.gov is the U.S. government's official web portal to all federal, state and local government web resources and services.